BAW915 EDDL-EGLL

Flight info

Callsign BAW915
Flight time 0h 54m
Altitude 32000
Route NETEX Z282 DIBIR L179 SASKI L608 LOGAN
Aircraft A320/M-SDE3FGHIJ1RWXY/S

Departure

Time 2026-05-05 21:52
Airport Düsseldorf Airport (EDDL)

Arrival

Time 2026-05-05 22:46
Airport London Heathrow Airport (EGLL)
Time Latitude Longitude Altitude Speed Heading
2026-05-05 21:16 51.28032 6.76363 156 ft 0 kts 197°
2026-05-05 21:40 51.28053 6.76373 156 ft 4 kts 201°
2026-05-05 21:41 51.28077 6.76391 156 ft 4 kts 218°
2026-05-05 21:41 51.28090 6.76415 156 ft 4 kts 302°
2026-05-05 21:41 51.28088 6.76421 156 ft 0 kts 325°
2026-05-05 21:45 51.28102 6.76406 156 ft 3 kts 325°
2026-05-05 21:46 51.28117 6.76388 156 ft 3 kts 322°
2026-05-05 21:46 51.28131 6.76367 156 ft 4 kts 315°
2026-05-05 21:46 51.28160 6.76319 156 ft 8 kts 313°
2026-05-05 21:46 51.28205 6.76254 156 ft 9 kts 334°
2026-05-05 21:47 51.28252 6.76281 156 ft 8 kts 43°
2026-05-05 21:47 51.28291 6.76362 156 ft 9 kts 50°
2026-05-05 21:47 51.28334 6.76453 156 ft 14 kts 52°
2026-05-05 21:47 51.28397 6.76585 156 ft 15 kts 52°
2026-05-05 21:48 51.28462 6.76721 156 ft 16 kts 53°
2026-05-05 21:48 51.28530 6.76865 156 ft 17 kts 52°
2026-05-05 21:48 51.28608 6.77026 156 ft 19 kts 52°
2026-05-05 21:48 51.28691 6.77201 156 ft 20 kts 53°
2026-05-05 21:49 51.28774 6.77374 156 ft 20 kts 53°
2026-05-05 21:49 51.28855 6.77549 156 ft 19 kts 54°
2026-05-05 21:49 51.28933 6.77712 156 ft 18 kts 52°
2026-05-05 21:49 51.29015 6.77881 156 ft 20 kts 53°
2026-05-05 21:50 51.29101 6.78062 156 ft 21 kts 53°
2026-05-05 21:50 51.29198 6.78211 156 ft 18 kts 12°
2026-05-05 21:50 51.29300 6.78132 157 ft 17 kts 310°
2026-05-05 21:50 51.29300 6.78011 158 ft 9 kts 213°
2026-05-05 21:51 51.29254 6.77909 157 ft 23 kts 234°
2026-05-05 21:51 51.29121 6.77628 157 ft 72 kts 233°
2026-05-05 21:51 51.28499 6.76327 155 ft 144 kts 233°
2026-05-05 21:51 51.27861 6.74994 623 ft 147 kts 233°
2026-05-05 21:52 51.26743 6.72162 1508 ft 162 kts 265°
2026-05-05 21:52 51.26763 6.70960 1795 ft 162 kts 286°
2026-05-05 21:52 51.27217 6.69308 2213 ft 164 kts 302°
2026-05-05 21:53 51.27785 6.67641 2496 ft 183 kts 302°
2026-05-05 21:53 51.28432 6.65746 2721 ft 206 kts 300°
2026-05-05 21:53 51.29156 6.63614 3010 ft 230 kts 300°
2026-05-05 21:53 51.29954 6.61242 3428 ft 254 kts 299°
2026-05-05 21:54 51.30816 6.58656 4039 ft 270 kts 298°
2026-05-05 21:54 51.31699 6.55981 4906 ft 273 kts 298°
2026-05-05 21:54 51.32585 6.53280 5786 ft 276 kts 298°
2026-05-05 21:54 51.33479 6.50553 6645 ft 278 kts 298°
2026-05-05 21:55 51.34382 6.47794 7468 ft 281 kts 298°
2026-05-05 21:55 51.35295 6.45012 8293 ft 284 kts 297°
2026-05-05 21:55 51.35995 6.42046 9090 ft 288 kts 282°
2026-05-05 21:55 51.36137 6.38842 9880 ft 291 kts 265°
2026-05-05 21:56 51.35700 6.35621 10302 ft 307 kts 248°
2026-05-05 21:56 51.34684 6.32485 10473 ft 329 kts 240°
2026-05-05 21:56 51.33532 6.29238 10923 ft 340 kts 240°
2026-05-05 21:56 51.32366 6.25921 11577 ft 344 kts 240°
2026-05-05 21:57 51.31195 6.22567 12273 ft 346 kts 240°
2026-05-05 21:57 51.30021 6.19196 12972 ft 349 kts 240°
2026-05-05 21:57 51.28839 6.15792 13656 ft 352 kts 240°
2026-05-05 21:57 51.27648 6.12357 14262 ft 354 kts 240°
2026-05-05 21:58 51.26481 6.08873 14843 ft 358 kts 241°
2026-05-05 21:58 51.25341 6.05326 15423 ft 361 kts 242°
2026-05-05 21:58 51.24210 6.01731 16000 ft 364 kts 242°
2026-05-05 21:58 51.23151 5.98045 16557 ft 367 kts 249°
2026-05-05 21:59 51.22510 5.94082 17114 ft 372 kts 260°
2026-05-05 21:59 51.22315 5.89954 17704 ft 376 kts 267°
2026-05-05 21:59 51.22227 5.85767 18252 ft 379 kts 266°
2026-05-05 21:59 51.22130 5.81553 18755 ft 382 kts 266°
2026-05-05 22:00 51.22027 5.77308 19257 ft 385 kts 266°
2026-05-05 22:00 51.21920 5.73021 19760 ft 388 kts 266°
2026-05-05 22:00 51.21809 5.68708 20254 ft 391 kts 266°
2026-05-05 22:00 51.21697 5.64344 20733 ft 394 kts 266°
2026-05-05 22:01 51.21586 5.59956 21196 ft 398 kts 266°
2026-05-05 22:01 51.21467 5.55535 21654 ft 401 kts 266°
2026-05-05 22:01 51.21328 5.51084 22099 ft 403 kts 265°
2026-05-05 22:01 51.21176 5.46594 22531 ft 406 kts 265°
2026-05-05 22:02 51.21016 5.42080 22992 ft 409 kts 265°
2026-05-05 22:02 51.20854 5.37531 23436 ft 412 kts 265°
2026-05-05 22:02 51.20691 5.32952 23815 ft 415 kts 265°
2026-05-05 22:02 51.20529 5.28341 24185 ft 418 kts 265°
2026-05-05 22:03 51.20368 5.23706 24557 ft 420 kts 265°
2026-05-05 22:03 51.20207 5.19041 24924 ft 423 kts 265°
2026-05-05 22:03 51.20041 5.14351 25287 ft 425 kts 265°
2026-05-05 22:03 51.19871 5.09627 25643 ft 428 kts 265°
2026-05-05 22:04 51.19697 5.04885 25992 ft 430 kts 265°
2026-05-05 22:04 51.19521 5.00110 26332 ft 433 kts 265°
2026-05-05 22:04 51.19352 4.95309 26678 ft 435 kts 265°
2026-05-05 22:04 51.19214 4.90953 26990 ft 437 kts 265°
2026-05-05 22:05 51.19075 4.86093 27343 ft 440 kts 265°
2026-05-05 22:05 51.18943 4.81206 27688 ft 443 kts 265°
2026-05-05 22:05 51.18792 4.76299 28047 ft 445 kts 265°
2026-05-05 22:05 51.18618 4.71354 28396 ft 447 kts 264°
2026-05-05 22:06 51.18430 4.66457 28723 ft 450 kts 264°
2026-05-05 22:06 51.18231 4.61475 29055 ft 452 kts 264°
2026-05-05 22:06 51.18029 4.56461 29384 ft 454 kts 264°
2026-05-05 22:06 51.17827 4.51442 29861 ft 453 kts 264°
2026-05-05 22:07 51.17629 4.46441 30293 ft 452 kts 264°
2026-05-05 22:07 51.17431 4.41443 30719 ft 451 kts 264°
2026-05-05 22:07 51.17232 4.36462 31145 ft 450 kts 264°
2026-05-05 22:07 51.17033 4.31499 31593 ft 448 kts 264°
2026-05-05 22:08 51.16833 4.26547 31847 ft 448 kts 264°
2026-05-05 22:08 51.17129 4.16621 31893 ft 452 kts 279°
2026-05-05 22:09 51.19066 4.07060 31893 ft 454 kts 288°
2026-05-05 22:09 51.21191 3.97579 31894 ft 454 kts 287°
2026-05-05 22:10 51.23289 3.88101 31894 ft 453 kts 287°
2026-05-05 22:10 51.25384 3.78616 31896 ft 453 kts 287°
2026-05-05 22:11 51.27480 3.69139 31906 ft 452 kts 287°
2026-05-05 22:11 51.29563 3.59662 31905 ft 452 kts 287°
2026-05-05 22:12 51.31629 3.50182 31913 ft 451 kts 287°
2026-05-05 22:12 51.33670 3.40762 31914 ft 451 kts 287°
2026-05-05 22:13 51.35741 3.31301 31923 ft 451 kts 288°
2026-05-05 22:13 51.37973 3.21933 31924 ft 451 kts 289°
2026-05-05 22:14 51.40239 3.12586 31924 ft 450 kts 288°
2026-05-05 22:14 51.42468 3.03217 31925 ft 449 kts 288°
2026-05-05 22:15 51.44662 2.93850 31931 ft 449 kts 288°
2026-05-05 22:15 51.46847 2.84484 31930 ft 448 kts 288°
2026-05-05 22:16 51.49020 2.75128 31936 ft 447 kts 287°
2026-05-05 22:16 51.51184 2.65768 31939 ft 447 kts 287°
2026-05-05 22:17 51.53336 2.56416 31946 ft 446 kts 287°
2026-05-05 22:17 51.55482 2.47072 31950 ft 445 kts 287°
2026-05-05 22:18 51.57611 2.37737 31951 ft 445 kts 287°
2026-05-05 22:18 51.59738 2.28405 31952 ft 444 kts 288°
2026-05-05 22:18 51.60808 2.23719 31543 ft 445 kts 288°
2026-05-05 22:19 51.61870 2.19044 31087 ft 445 kts 288°
2026-05-05 22:19 51.62929 2.14370 30633 ft 443 kts 288°
2026-05-05 22:19 51.63978 2.09728 30188 ft 440 kts 288°
2026-05-05 22:19 51.65017 2.05117 29697 ft 437 kts 288°
2026-05-05 22:20 51.66043 2.00536 29186 ft 433 kts 287°
2026-05-05 22:20 51.67057 1.95998 28673 ft 429 kts 288°
2026-05-05 22:20 51.68060 1.91493 28189 ft 425 kts 288°
2026-05-05 22:20 51.69053 1.87032 27706 ft 421 kts 288°
2026-05-05 22:21 51.70037 1.82607 27230 ft 418 kts 288°
2026-05-05 22:21 51.71011 1.78210 26763 ft 414 kts 288°
2026-05-05 22:21 51.71972 1.73849 26289 ft 411 kts 288°
2026-05-05 22:21 51.72913 1.69586 25850 ft 408 kts 288°
2026-05-05 22:22 51.73824 1.65275 25400 ft 404 kts 284°
2026-05-05 22:22 51.74359 1.60845 24964 ft 400 kts 275°
2026-05-05 22:22 51.74442 1.56387 24527 ft 397 kts 266°
2026-05-05 22:22 51.74175 1.51974 24094 ft 395 kts 263°
2026-05-05 22:23 51.73887 1.47569 23586 ft 394 kts 264°
2026-05-05 22:23 51.73602 1.43184 22982 ft 393 kts 264°
2026-05-05 22:23 51.73320 1.38802 22380 ft 392 kts 264°
2026-05-05 22:23 51.73040 1.34440 21790 ft 391 kts 264°
2026-05-05 22:24 51.72756 1.30083 21219 ft 390 kts 264°
2026-05-05 22:24 51.72470 1.25733 20659 ft 389 kts 264°
2026-05-05 22:24 51.72182 1.21396 20100 ft 388 kts 264°
2026-05-05 22:24 51.71894 1.17084 19558 ft 386 kts 264°
2026-05-05 22:25 51.71606 1.12793 19025 ft 384 kts 263°
2026-05-05 22:25 51.71318 1.08525 18499 ft 382 kts 263°
2026-05-05 22:25 51.71028 1.04274 17933 ft 380 kts 263°
2026-05-05 22:25 51.70738 1.00049 17347 ft 378 kts 263°
2026-05-05 22:26 51.70447 0.95849 16760 ft 376 kts 263°
2026-05-05 22:26 51.70157 0.91680 16194 ft 373 kts 264°
2026-05-05 22:26 51.69869 0.87540 15685 ft 369 kts 264°
2026-05-05 22:26 51.69585 0.83471 15298 ft 362 kts 264°
2026-05-05 22:27 51.69303 0.79477 14923 ft 355 kts 264°
2026-05-05 22:27 51.69026 0.75560 14557 ft 349 kts 264°
2026-05-05 22:27 51.68755 0.71708 14194 ft 344 kts 264°
2026-05-05 22:27 51.68488 0.67898 13832 ft 341 kts 264°
2026-05-05 22:28 51.68218 0.64123 13441 ft 338 kts 264°
2026-05-05 22:28 51.67948 0.60369 13042 ft 335 kts 264°
2026-05-05 22:28 51.67680 0.56672 12647 ft 330 kts 264°
2026-05-05 22:28 51.67412 0.53017 12258 ft 327 kts 264°
2026-05-05 22:29 51.67146 0.49405 11872 ft 323 kts 264°
2026-05-05 22:29 51.66884 0.45825 11496 ft 320 kts 264°
2026-05-05 22:29 51.66623 0.42272 11118 ft 318 kts 264°
2026-05-05 22:29 51.66362 0.38751 10750 ft 316 kts 264°
2026-05-05 22:30 51.66105 0.35301 10387 ft 314 kts 264°
2026-05-05 22:30 51.65851 0.31823 10048 ft 308 kts 264°
2026-05-05 22:30 51.65605 0.28506 9904 ft 291 kts 264°
2026-05-05 22:30 51.65363 0.25300 9768 ft 283 kts 264°
2026-05-05 22:31 51.65129 0.22245 9575 ft 269 kts 264°
2026-05-05 22:31 51.64903 0.19269 9303 ft 267 kts 264°
2026-05-05 22:31 51.64679 0.16317 9040 ft 264 kts 264°
2026-05-05 22:31 51.64468 0.13391 8777 ft 262 kts 265°
2026-05-05 22:32 51.64301 0.10487 8518 ft 260 kts 266°
2026-05-05 22:32 51.64152 0.07598 8259 ft 258 kts 267°
2026-05-05 22:32 51.64006 0.04732 8001 ft 256 kts 266°
2026-05-05 22:32 51.63857 0.01882 7751 ft 255 kts 266°
2026-05-05 22:33 51.63707 -0.00951 7494 ft 253 kts 266°
2026-05-05 22:33 51.63555 -0.03772 7247 ft 252 kts 266°
2026-05-05 22:33 51.63400 -0.06568 7050 ft 250 kts 266°
2026-05-05 22:33 51.63243 -0.09356 7048 ft 250 kts 266°
2026-05-05 22:34 51.63087 -0.12148 7048 ft 251 kts 266°
2026-05-05 22:34 51.62928 -0.14946 7052 ft 251 kts 266°
2026-05-05 22:34 51.62767 -0.17744 7055 ft 251 kts 266°
2026-05-05 22:34 51.62606 -0.20538 7057 ft 251 kts 266°
2026-05-05 22:35 51.62446 -0.23333 7057 ft 251 kts 266°
2026-05-05 22:35 51.62287 -0.26132 7057 ft 251 kts 266°
2026-05-05 22:35 51.62126 -0.28924 7056 ft 251 kts 266°
2026-05-05 22:35 51.61962 -0.31711 7057 ft 250 kts 265°
2026-05-05 22:36 51.61797 -0.34503 7000 ft 250 kts 266°
2026-05-05 22:36 51.61632 -0.37288 7000 ft 250 kts 266°
2026-05-05 22:36 51.61523 -0.39131 7000 ft 250 kts 266°
2026-05-05 22:36 51.61358 -0.41918 7000 ft 250 kts 266°
2026-05-05 22:37 51.61192 -0.44702 7000 ft 250 kts 266°
2026-05-05 22:37 51.61028 -0.47485 7000 ft 250 kts 265°
2026-05-05 22:37 51.60862 -0.50271 7003 ft 250 kts 265°
2026-05-05 22:37 51.60696 -0.53045 6997 ft 246 kts 265°
2026-05-05 22:38 51.60529 -0.55745 6908 ft 242 kts 265°
2026-05-05 22:38 51.60362 -0.58429 6661 ft 240 kts 265°
2026-05-05 22:38 51.60198 -0.61082 6412 ft 237 kts 265°
2026-05-05 22:38 51.60038 -0.63714 6150 ft 235 kts 265°
2026-05-05 22:39 51.59880 -0.66323 6010 ft 235 kts 265°
2026-05-05 22:39 51.59720 -0.68934 5996 ft 235 kts 265°
2026-05-05 22:39 51.59556 -0.71549 5995 ft 235 kts 265°
2026-05-05 22:39 51.59392 -0.74169 6001 ft 235 kts 266°
2026-05-05 22:40 51.59112 -0.76734 5778 ft 241 kts 248°
2026-05-05 22:40 51.58080 -0.78809 5399 ft 240 kts 214°
2026-05-05 22:40 51.56530 -0.79647 5010 ft 236 kts 181°
2026-05-05 22:40 51.54923 -0.79366 4631 ft 230 kts 174°
2026-05-05 22:41 51.53336 -0.79209 4240 ft 226 kts 178°
2026-05-05 22:41 51.51773 -0.79167 3848 ft 223 kts 179°
2026-05-05 22:41 51.50233 -0.79144 3466 ft 220 kts 178°
2026-05-05 22:41 51.48728 -0.78937 3076 ft 214 kts 157°
2026-05-05 22:42 51.47647 -0.77462 2696 ft 204 kts 111°
2026-05-05 22:42 51.47395 -0.75304 2515 ft 192 kts 90°
2026-05-05 22:42 51.47416 -0.73268 2501 ft 174 kts 85°
2026-05-05 22:42 51.47517 -0.71406 2495 ft 164 kts 83°
2026-05-05 22:43 51.47597 -0.69599 2501 ft 162 kts 85°
2026-05-05 22:43 51.47636 -0.67797 2410 ft 161 kts 87°
2026-05-05 22:43 51.47656 -0.66013 2253 ft 158 kts 87°
2026-05-05 22:43 51.47670 -0.64248 2052 ft 158 kts 87°
2026-05-05 22:44 51.47681 -0.62486 1841 ft 157 kts 88°
2026-05-05 22:44 51.47690 -0.60831 1642 ft 143 kts 88°
2026-05-05 22:44 51.47698 -0.59267 1444 ft 138 kts 88°
2026-05-05 22:44 51.47706 -0.57740 1257 ft 137 kts 87°
2026-05-05 22:45 51.47714 -0.56212 1074 ft 137 kts 88°
2026-05-05 22:45 51.47720 -0.54697 864 ft 136 kts 88°
2026-05-05 22:45 51.47723 -0.53185 727 ft 135 kts 88°
2026-05-05 22:45 51.47731 -0.51693 565 ft 132 kts 87°
2026-05-05 22:46 51.47744 -0.50230 339 ft 129 kts 89°
2026-05-05 22:46 51.47745 -0.48790 186 ft 129 kts 88°
2026-05-05 22:46 51.47749 -0.47370 88 ft 119 kts 89°
2026-05-05 22:46 51.47757 -0.46429 92 ft 42 kts 90°
2026-05-05 22:47 51.47705 -0.46149 88 ft 24 kts 146°
2026-05-05 22:47 51.47594 -0.46072 88 ft 11 kts 226°
2026-05-05 22:47 51.47596 -0.46201 89 ft 12 kts 271°
2026-05-05 22:47 51.47593 -0.46352 87 ft 15 kts 269°
2026-05-05 22:48 51.47593 -0.46528 87 ft 17 kts 270°
2026-05-05 22:48 51.47592 -0.46730 87 ft 19 kts 270°
2026-05-05 22:48 51.47582 -0.46954 89 ft 21 kts 271°
2026-05-05 22:48 51.47583 -0.47205 90 ft 24 kts 269°
2026-05-05 22:49 51.47581 -0.47448 90 ft 22 kts 269°
2026-05-05 22:49 51.47580 -0.47692 88 ft 20 kts 270°
2026-05-05 22:49 51.47579 -0.47926 88 ft 22 kts 269°
2026-05-05 22:49 51.47578 -0.48176 90 ft 21 kts 270°
2026-05-05 22:50 51.47578 -0.48386 88 ft 14 kts 269°
2026-05-05 22:50 51.47547 -0.48474 88 ft 10 kts 181°
2026-05-05 22:50 51.47488 -0.48519 89 ft 11 kts 259°
2026-05-05 22:50 51.47487 -0.48649 90 ft 12 kts 270°
2026-05-05 22:51 51.47486 -0.48763 90 ft 11 kts 269°
2026-05-05 22:51 51.47462 -0.48831 88 ft 7 kts 192°
2026-05-05 22:51 51.47426 -0.48833 87 ft 5 kts 180°
2026-05-05 22:51 51.47408 -0.48832 87 ft 0 kts 178°
2026-05-05 22:55 51.47407 -0.48832 87 ft 0 kts 178°